Skip Page Navigation
NASA JPL Caltech
NASA Logo - Jet Propulsion Laboratory + View the NASA Portal
+ Center for Near-Earth Object Studies
JPL Home Earth Solar System Stars & Galaxies Technology
JPL Solar System Dynamics
BODIES ORBITS EPHEMERIDES TOOLS PHYSICAL DATA DISCOVERY FAQ SITE MAP
IMPORTANT: The SSD Announcement email list is now available. Major changes are coming in the near future, including possible hostname and/or URL changes. To be notified of such changes, subscribe to this email list.

Please visit this page for more details.


JPL Small-Body Database Browser
Search: [ help ]  
266269 (2007 AM14)
Classification: Main-belt Asteroid          SPK-ID: 2266269
Ephemeris | Orbit Diagram | Orbital Elements | Mission Design | Physical Parameters | Discovery Circumstances | Close-Approach Data ]

[ show orbit diagram ]
Orbital Elements at Epoch 2458600.5 (2019-Apr-27.0) TDB
Reference: JPL 10 (heliocentric ecliptic J2000)
 Element Value Uncertainty (1-sigma)   Units 
e .1239872893617762 7.1006e-08  
a 2.376467922827928 1.9565e-08 au
q 2.081816106821283 1.6586e-07 au
i 1.668693984760174 7.3511e-06 deg
node 152.1718359956736 0.00028141 deg
peri 355.6884577094751 0.00028386 deg
M 105.6469997745126 3.8466e-05 deg
tp 2458207.808926410552
(2018-Mar-30.30892641)
0.00014073 TDB
period 1338.124005356813
3.66
1.6525e-05
4.524e-08
d
yr
n .269033362049286 3.3224e-09 deg/d
Q 2.671119738834574 2.1991e-08 au
  Orbit Determination Parameters
   # obs. used (total)      159  
   data-arc span      8062 days (22.07 yr)  
   first obs. used      1995-12-29  
   last obs. used      2018-01-24  
   planetary ephem.      DE431  
   SB-pert. ephem.      SB431-N16  
   condition code      0  
   norm. resid. RMS      .67007  
   source      ORB  
   producer      Otto Matic  
   solution date      2018-Feb-06 08:44:57  

Additional Information
 Earth MOID = 1.09378 au 
 Jupiter MOID = 2.32813 au 
 T_jup = 3.530 
[ show covariance matrix ]

Ephemeris | Orbit Diagram | Orbital Elements | Mission Design | Physical Parameters | Discovery Circumstances | Close-Approach Data ]

Physical Parameter Table
Parameter Symbol Value Units Sigma Reference Notes
absolute magnitude H 17.3   n/a MPO437227  

266269 (2007 AM14)          Discovered 2007-Jan-09 by Mt. Lemmon Survey at Mount Lemmon
Reference: 20110218/Numbers.arcLast Updated: 2011-02-22

[ show close-approach data ]
Ephemeris | Orbit Diagram | Orbital Elements | Mission Design | Physical Parameters | Discovery Circumstances | Close-Approach Data ]
ABOUT SSD CREDITS/AWARDS PRIVACY/COPYRIGHT GLOSSARY LINKS
FirstGov 2019-Dec-16 07:48 UT
(server date/time)  
NASA Home Page
Site Manager:   Ryan S. Park
Webmaster  Alan B. Chamberlin